This is the latest recevied weather packets stored in our database for station/object DJ2DS-13. If no packets are shown the sender has not sent any weather packets the latest 10 day(s).
| Time | Temp. | Humidity | Pressure | Rain* | Wind** | Luminosity | Snow |
|---|---|---|---|---|---|---|---|
| 1777815093 | 20.56° C | 75% | 1006.6 hPa | 0 mm | - | 90 W/m² | - |
| 1777814793 | 21.11° C | 74% | 1006.8 hPa | 0 mm | - | 127 W/m² | - |
| 1777814494 | 21.67° C | 73% | 1006.8 hPa | 0 mm | - | 169 W/m² | - |
| 1777814193 | 22.22° C | 72% | 1007.1 hPa | 0 mm | - | 165 W/m² | - |
| 1777813893 | 22.22° C | 72% | 1007.1 hPa | 0 mm | - | 171 W/m² | - |
| 1777813592 | 22.22° C | 73% | 1007.1 hPa | 0 mm | - | 517 W/m² | - |
| 1777813293 | 22.22° C | 72% | 1007.4 hPa | 0 mm | - | 404 W/m² | - |
| 1777812993 | 22.22° C | 73% | 1007.4 hPa | 0 mm | - | 644 W/m² | - |
| 1777812693 | 22.22° C | 72% | 1007.5 hPa | 0 mm | - | 723 W/m² | - |
| 1777812395 | 22.22° C | 69% | 1007.6 hPa | 0 mm | - | 622 W/m² | - |
| 1777811794 | 21.67° C | 70% | 1007.8 hPa | 0 mm | - | 550 W/m² | - |
| 1777811493 | 21.67° C | 71% | 1007.8 hPa | 0 mm | - | 292 W/m² | - |
| 1777811193 | 21.67° C | 72% | 1007.8 hPa | 0 mm | - | 489 W/m² | - |
| 1777810893 | 21.67° C | 73% | 1007.9 hPa | 0 mm | - | 492 W/m² | - |
| 1777810593 | 21.67° C | 74% | 1007.9 hPa | 0 mm | - | 329 W/m² | - |
| 1777810293 | 21.67° C | 73% | 1008.1 hPa | 0 mm | - | 304 W/m² | - |
| 1777809993 | 21.67° C | 71% | 1008 hPa | 0 mm | - | 271 W/m² | - |
| 1777809693 | 21.67° C | 68% | 1008.1 hPa | 0 mm | - | 285 W/m² | - |
| 1777809393 | 21.67° C | 67% | 1008.2 hPa | 0 mm | - | 306 W/m² | - |
| 1777809094 | 21.67° C | 67% | 1008.2 hPa | 0 mm | - | 334 W/m² | - |
| 1777808793 | 21.11° C | 68% | 1008.4 hPa | 0 mm | - | 308 W/m² | - |
| 1777808493 | 21.67° C | 67% | 1008.3 hPa | 0 mm | - | 253 W/m² | - |
| 1777808194 | 21.67° C | 67% | 1008.4 hPa | 0 mm | - | 327 W/m² | - |
| 1777807893 | 21.67° C | 66% | 1008.4 hPa | 0 mm | - | 308 W/m² | - |
| 1777807593 | 21.67° C | 68% | 1008.5 hPa | 0 mm | - | 271 W/m² | - |
* Rain latest hour (hover to see other rain measurements)
** Current wind speed in m/s (hover to see current wind gust speed)